Flag for Norway Weather past 2 weeks in Lørenskog, Norway

Now
39 °F

Chilly.


Feels Like: 39 °F
Forecast: 46 / 56 °F
Wind: 1 mph from North

Location: Oslo-Blindern

Current Time: May 24, 2015 at 5:31:13 AM

Latest Report: May 24, 2015 at 4:00 AM


Visibility: N/A

Pressure: 29.95 "Hg

Humidity: 65%

Dew point: 29 °F

Location of LørenskogLocation

Historic Weather in Lørenskog — Graph

°F

Lørenskog temperature yesterday

Maximum temperature yesterday: 63 °F (at 2:00 PM)
Minimum temperature yesterday: 39 °F (at 5:00 AM)
Average temperature yesterday: 53 °F

Past Weeks' High & Low Weather Summary

 TemperatureHumidityPressure
High63 °F (May 23, 2:00 PM)98% (May 13, 1:00 AM)30.13 "Hg (May 13, 1:00 AM)
Low32 °F (May 9, 4:00 AM)25% (May 15, 4:00 PM)29.44 "Hg (May 19, 11:00 AM)
Average48 °F68%29.81 "Hg
* Reported May 9 4:00 AM — May 24 4:00 AM, Lørenskog, Weather by CustomWeather, © 2015

Note: Actual official high and low records may vary slightly from our data, if they occured in-between our weather recording intervals... More about our weather records

Advertising

Lørenskog weather history for previous 24 hours

 ConditionsComfort  
Time TempWeatherWind HumidityBarometerVisibility
4:00 AM
Sun, May 24
39 °FChilly.1 mph65%29.95 "HgN/A
3:00 AM40 °FQuite cool.3 mph64%29.94 "HgN/A
2:00 AM42 °FPassing clouds.2 mph61%29.95 "Hg47 mi
1:00 AM45 °FCool.2 mph51%29.95 "HgN/A
12:00 AM47 °FCool.1 mph50%29.94 "HgN/A
10:00 PM
Sat, May 23
52 °FCool.3 mph39%29.93 "HgN/A
9:00 PM54 °FCool.3 mph39%29.90 "HgN/A
8:00 PM57 °FPartly sunny.7 mph36%29.90 "Hg47 mi
7:00 PM58 °FRefreshingly cool.7 mph34%29.89 "HgN/A
6:00 PM63 °FMild.5 mph29%29.88 "HgN/A
5:00 PM63 °FScattered clouds.6 mph29%29.89 "Hg47 mi
4:00 PM63 °FMild.6 mph29%29.90 "HgN/A
3:00 PM62 °FRefreshingly cool.3 mph31%29.89 "HgN/A
2:00 PM63 °FScattered clouds.3 mph33%29.89 "Hg47 mi
1:00 PM60 °FRefreshingly cool.2 mph37%29.89 "HgN/A
12:00 PM61 °FRefreshingly cool.3 mph34%29.89 "HgN/A
11:00 AM58 °FPartly sunny.2 mph41%29.89 "Hg47 mi
10:00 AM58 °FRefreshingly cool.3 mph41%29.87 "HgN/A
9:00 AM56 °FRefreshingly cool.2 mph43%29.84 "HgN/A
8:00 AM52 °FPassing clouds.3 mph59%29.82 "Hg47 mi
7:00 AM47 °FCool.3 mph65%29.79 "HgN/A
6:00 AM43 °FQuite cool.5 mph73%29.77 "HgN/A
5:00 AM39 °FPassing clouds.5 mph77%29.75 "Hg47 mi
Weather by CustomWeather, © 2015

See weather overviewHow to use our weather pages